KUIPER-00176

Last updated on Mon Oct 20 2025 00:02:07 GMT+0000 (Coordinated Universal Time)

1 65788U 25217AC 25292.30679594 .00052285 00000+0 14189-2 0 9990 2 65788 51.8733 327.4345 0002072 84.2410 275.8813 15.37090510 3672
UTC large
Height (km)
Speed (km/s)
/
Latitude / Longitude
Inclination (degrees)
Orbital Period (minutes)
Azimuth
Elevation
Range (km)
Doppler Factor

Next 0 passes for location: London (51.5072 / 0.1276)

Sorry there are no passes over London.